SL-6 R/B(2) (20666 NORAD) Tracking and Keplerian Element Data

This shows tracking and keplerian element data for the satellite.

Feedback or suggestion? Click here.




ElementValue
Catalog20666
NameSL-6 R/B(2)
Epoch Orbit52072
Epoch Day198.70559423
Epoch Year2018
RAAN265.6574
Inclination62.785
Eccentricity0.0092327
Argument of Perigee150.6054
Mean Anonmoly210.0279
Mean Motion14.92149487
Decay Rate-4.8E-07
L11 20666U 90055D 18198.70559423 -.00000048 00000-0 13980-4 0 9999
L22 20666 62.7850 265.6574 0092327 150.6054 210.0279 14.92149487520725

Live tracking and technical data element details for SL-6 R/B(2) (NORAD 20666). SL-6 R/B(2) can be tracked NOW for your location showing map with azimuth and elevation plus other details from your city location.

Track the satellite on the map from your city or location and see movement details for azimuth, elevation, latitude, longitude, range, height, and movement on the map or in text.







IsCatalogInMostPopularTable: catalog: 20666, numindb: 33
Update: records affected: 1



GetName: 20666 SL-6 R/B(2)

Hit Count: updated at: Thu, 19 Jul 2018 21:27:46 GMT